Location: Decatur Area Astronomy Club
(40.0275°N, 88.7810°W)
Time: 19:15:18
(UTC-05:00)

Amateur Radio Satellites - All Passes

Search period start: 23 July 2014 18:45
Search period end: 24 July 2014 18:45
Location: Decatur Area Astronomy Club, 40.0275°N, 88.7810°W

Satellite Date Start Highest point End Downlink Frequencies (MHz)
Time Altitude Azimuth
SO-67 23 Jul 18:50:04 18:53:10 31° 73° (ENE) 18:56:18 435.3500 MHz FM
Hamsat 23 Jul 19:04:03 19:07:21 23° 266° (W) 19:10:40 145.90 MHz
Saudisat 1A 23 Jul 19:16:44 19:20:10 22° 248° (WSW) 19:23:34 436.775 MHz
JAS-2 23 Jul 19:57:27 20:03:26 24° 269° (W) 20:09:20 435.800 - 435.900 CW/SSB, 435.910 FM
RS-15 23 Jul 20:09:23 20:16:40 19° 11° (N) 20:24:02 29.354 - 29.394 USB, Beacon 29.352 USB
HO-68 23 Jul 20:17:41 20:24:16 41° 65° (ENE) 20:30:51 435.675 MHz FM
STRAND 1 23 Jul 20:17:43 20:22:40 51° 289° (WNW) 20:27:35 ?
SO-67 23 Jul 20:24:38 20:26:21 13° 268° (W) 20:28:04 435.3500 MHz FM
UKube-1 23 Jul 20:51:20 20:55:22 37° 71° (ENE) 20:59:24 145.840 MHz, 145.915 MHz
Oscar 11 23 Jul 21:42:41 21:46:57 65° 75° (ENE) 21:51:13 145.825 FM, Beacon 2401.500 USB
FUNcube-1 23 Jul 21:48:32 21:52:13 27° 70° (ENE) 21:55:51 145.950 - 145.970 MHz USB
HO-68 23 Jul 22:05:23 22:11:56 38° 262° (W) 22:18:32 435.675 MHz FM
RS-15 23 Jul 22:22:47 22:33:07 43° 44° (NE) 22:43:42 29.354 - 29.394 USB, Beacon 29.352 USB
UKube-1 23 Jul 22:28:37 22:31:41 19° 266° (W) 22:34:46 145.840 MHz, 145.915 MHz
SO-50 23 Jul 22:43:34 22:48:15 55° 54° (NE) 22:52:58 436.795 FM
MaSat-1 23 Jul 22:47:41 22:51:31 87° 114° (ESE) 22:56:04 437.345 MHz
Oscar 11 23 Jul 23:22:54 23:23:33 10° 270° (W) 23:24:11 145.825 FM, Beacon 2401.500 USB
FUNcube-1 23 Jul 23:24:53 23:28:34 26° 264° (W) 23:32:11 145.950 - 145.970 MHz USB
UOSAT-12 23 Jul 23:37:12 23:40:29 18° 42° (NE) 23:43:44 437.025 FM, 437.400 FM
AO-40 23 Jul 23:56:57 05:43:41 41° 181° (S) 10:21:46 Beacon 2401.320
Lituanica SAT-1 24 Jul 00:16:52 00:18:58 77° 142° (SE) 00:21:06 437.275 MHz beacon
ISS 24 Jul 00:22:15 00:22:30 10° 127° (SE) 00:22:45 145.800 FM
SO-50 24 Jul 00:25:16 00:28:24 18° 250° (WSW) 00:31:33 436.795 FM
MaSat-1 24 Jul 00:28:17 00:29:46 12° 316° (NW) 00:31:19 437.345 MHz
RS-15 24 Jul 00:35:09 00:45:55 61° 246° (WSW) 00:57:07 29.354 - 29.394 USB, Beacon 29.352 USB
PCSat 24 Jul 01:07:12 01:11:19 23° 107° (ESE) 01:15:27 145.825 MHz
Oscar 19 24 Jul 01:12:39 01:14:37 12° 90° (E) 01:16:35 437.125 CW, 437.150 USB
UOSAT-12 24 Jul 01:16:23 01:21:05 66° 241° (WSW) 01:25:42 437.025 FM, 437.400 FM
Oscar 16 24 Jul 01:38:14 01:42:21 24° 94° (E) 01:46:27 437.025 USB, Beacon 2401.1428
ITAMSAT 1 24 Jul 01:49:06 01:51:07 12° 90° (E) 01:53:09 435.822 SSB
Lituanica SAT-1 24 Jul 01:51:42 01:52:04 10° 339° (NNW) 01:52:25 437.275 MHz beacon
ISS 24 Jul 01:55:23 01:58:43 85° 323° (NW) 02:02:06 145.800 FM
AO-27 24 Jul 02:05:27 02:09:04 19° 93° (E) 02:12:40 436.795 MHz FM
Uribyol 2 24 Jul 02:08:28 02:12:20 21° 94° (E) 02:16:11 436.500 FM
AO-Echo 24 Jul 02:11:48 02:15:46 22° 93° (E) 02:19:36 ?
Sapphire 24 Jul 02:14:51 02:20:14 83° 117° (ESE) 02:25:41 437.095 MHz 1200 baud AX-25 AFSK
JAS-1B 24 Jul 02:42:49 02:51:20 35° 92° (E) 02:58:50 435.800 - 435.900 CW/SSB
PCSat 24 Jul 02:49:08 02:54:22 49° 304° (WNW) 02:59:38 145.825 MHz
Oscar 19 24 Jul 02:49:20 02:54:30 76° 285° (WNW) 02:59:39 437.125 CW, 437.150 USB
RS-15 24 Jul 02:54:44 02:55:54 10° 265° (W) 02:57:05 29.354 - 29.394 USB, Beacon 29.352 USB
TMSAT-1 24 Jul 03:14:36 03:18:58 26° 95° (E) 03:23:17 436.925 FM
Oscar 16 24 Jul 03:17:01 03:21:48 40° 290° (WNW) 03:26:35 437.025 USB, Beacon 2401.1428
ITAMSAT 1 24 Jul 03:25:58 03:31:10 75° 286° (WNW) 03:36:18 435.822 SSB
ISS 24 Jul 03:33:28 03:35:52 18° 341° (NNW) 03:38:16 145.800 FM
Gurwin Techsat 1B 24 Jul 03:34:45 03:39:58 55° 100° (E) 03:45:09 435.225 FM
OPAL 24 Jul 03:39:59 03:44:49 57° 70° (ENE) 03:49:40 ?
AO-27 24 Jul 03:43:51 03:48:51 50° 289° (WNW) 03:53:50 436.795 MHz FM
Uribyol 2 24 Jul 03:47:06 03:52:00 45° 290° (WNW) 03:56:52 436.500 FM
AO-Echo 24 Jul 03:49:52 03:54:42 41° 290° (WNW) 03:59:21 ?
Sapphire 24 Jul 04:00:54 04:04:21 17° 316° (NW) 04:07:49 437.095 MHz 1200 baud AX-25 AFSK
Uosat F 24 Jul 04:04:31 04:07:33 16° 92° (E) 04:10:34 435.120 FM
JAS-1B 24 Jul 04:32:47 04:42:10 57° 293° (WNW) 04:50:24 435.800 - 435.900 CW/SSB
TMSAT-1 24 Jul 04:54:05 04:58:58 39° 291° (WNW) 05:03:49 436.925 FM
AO-7 24 Jul 04:59:21 05:07:26 52° 102° (ESE) 05:15:26 29.400 - 29.500 MHz
ISS 24 Jul 05:12:24 05:13:38 12° 1° (N) 05:14:52 145.800 FM
Gurwin Techsat 1B 24 Jul 05:15:48 05:19:29 19° 297° (WNW) 05:23:10 435.225 FM
OPAL 24 Jul 05:21:09 05:24:03 16° 266° (W) 05:26:58 ?
Uosat F 24 Jul 05:41:46 05:46:41 56° 288° (WNW) 05:51:34 435.120 FM
STRAND 1 24 Jul 05:54:54 05:59:05 26° 66° (ENE) 06:03:17 ?
JAS-1B 24 Jul 06:25:57 06:30:23 14° 314° (NW) 06:34:39 435.800 - 435.900 CW/SSB
Lituanica SAT-1 24 Jul 06:30:34 06:32:42 56° 35° (NE) 06:34:49 437.275 MHz beacon
Oscar 10/S400 24 Jul 06:36:55 07:55:16 31° 248° (WSW) 11:31:03 145.825 - 145.975 CW/USB, Beacon 145.810 USB
ISS 24 Jul 06:48:45 06:51:22 20° 22° (NNE) 06:53:58 145.800 FM
Hamsat 24 Jul 06:49:14 06:53:29 64° 101° (E) 06:57:46 145.90 MHz
AO-7 24 Jul 06:52:33 06:59:55 37° 300° (WNW) 07:07:16 29.400 - 29.500 MHz
KITSAT 1 24 Jul 06:54:41 07:02:22 49° 111° (ESE) 07:10:03 435.175 FM
MaSat-1 24 Jul 07:06:53 07:11:11 24° 53° (NE) 07:15:23 437.345 MHz
JAS-2 24 Jul 07:07:05 07:13:16 64° 100° (E) 07:18:43 435.800 - 435.900 CW/SSB, 435.910 FM
STRAND 1 24 Jul 07:33:19 07:38:04 38° 262° (W) 07:42:51 ?
Saudisat 1A 24 Jul 07:46:06 07:46:59 11° 107° (ESE) 07:47:51 436.775 MHz
SO-67 24 Jul 07:47:17 07:50:37 42° 99° (E) 07:53:55 435.3500 MHz FM
ISS 24 Jul 08:25:02 08:28:23 72° 219° (SW) 08:31:43 145.800 FM
Hamsat 24 Jul 08:27:25 08:28:55 12° 296° (WNW) 08:30:25 145.90 MHz
PANSAT 24 Jul 08:33:16 08:35:21 14° 175° (S) 08:37:25 not established
MaSat-1 24 Jul 08:43:42 08:48:51 50° 251° (WSW) 08:53:45 437.345 MHz
KITSAT 1 24 Jul 08:50:22 08:57:53 41° 311° (NW) 09:05:27 435.175 FM
JAS-2 24 Jul 08:53:24 08:57:37 19° 301° (WNW) 09:01:32 435.800 - 435.900 CW/SSB, 435.910 FM
Saudisat 1A 24 Jul 09:21:30 09:25:55 76° 303° (WNW) 09:30:22 436.775 MHz
SO-67 24 Jul 09:22:21 09:23:17 11° 294° (WNW) 09:24:13 435.3500 MHz FM
Sapphire 24 Jul 09:23:02 09:24:16 11° 37° (NE) 09:25:29 437.095 MHz 1200 baud AX-25 AFSK
Oscar 11 24 Jul 09:32:58 09:34:46 12° 91° (E) 09:36:33 145.825 FM, Beacon 2401.500 USB
HO-68 24 Jul 09:33:06 09:39:52 44° 99° (E) 09:46:35 435.675 MHz FM
PCSat 24 Jul 09:55:08 09:58:59 19° 45° (NE) 10:02:48 145.825 MHz
PANSAT 24 Jul 10:13:00 10:14:49 13° 188° (S) 10:16:38 not established
UKube-1 24 Jul 10:15:59 10:20:22 78° 103° (ESE) 10:24:42 145.840 MHz, 145.915 MHz
KITSAT 1 24 Jul 10:52:24 10:55:56 13° 337° (NNW) 10:59:28 435.175 FM
Sapphire 24 Jul 11:03:33 11:08:54 57° 58° (ENE) 11:14:13 437.095 MHz 1200 baud AX-25 AFSK
Saudisat 1A 24 Jul 11:04:46 11:06:16 12° 322° (NW) 11:07:47 436.775 MHz
Oscar 11 24 Jul 11:07:02 11:11:17 55° 286° (WNW) 11:15:30 145.825 FM, Beacon 2401.500 USB
FUNcube-1 24 Jul 11:13:50 11:17:58 61° 101° (E) 11:22:06 145.950 - 145.970 MHz USB
HO-68 24 Jul 11:21:03 11:27:24 36° 297° (WNW) 11:33:43 435.675 MHz FM
PCSat 24 Jul 11:37:32 11:42:57 71° 244° (WSW) 11:48:19 145.825 MHz
UKube-1 24 Jul 11:55:24 11:55:55 10° 299° (WNW) 11:56:26 145.840 MHz, 145.915 MHz
Oscar 19 24 Jul 12:28:30 12:31:53 18° 63° (ENE) 12:35:15 437.125 CW, 437.150 USB
Sapphire 24 Jul 12:48:06 12:51:51 19° 255° (WSW) 12:55:34 437.095 MHz 1200 baud AX-25 AFSK
RS-15 24 Jul 12:48:53 12:56:53 23° 102° (ESE) 13:04:42 29.354 - 29.394 USB, Beacon 29.352 USB
FUNcube-1 24 Jul 12:52:31 12:53:51 11° 297° (WNW) 12:55:12 145.950 - 145.970 MHz USB
Oscar 16 24 Jul 12:54:35 12:59:06 33° 68° (ENE) 13:03:38 437.025 USB, Beacon 2401.1428
SO-50 24 Jul 12:59:24 13:02:33 19° 110° (ESE) 13:05:45 436.795 FM
ITAMSAT 1 24 Jul 13:05:51 13:09:30 20° 63° (ENE) 13:13:10 435.822 SSB
Gurwin Techsat 1B 24 Jul 13:20:22 13:21:24 11° 58° (ENE) 13:22:26 435.225 FM
AO-27 24 Jul 13:22:47 13:27:11 28° 66° (ENE) 13:31:35 436.795 MHz FM
AO-Echo 24 Jul 13:23:38 13:28:07 29° 67° (ENE) 13:32:38 ?
Uribyol 2 24 Jul 13:25:35 13:30:06 31° 67° (ENE) 13:34:38 436.500 FM
JAS-1B 24 Jul 13:25:36 13:32:53 31° 57° (ENE) 13:40:51 435.800 - 435.900 CW/SSB
Oscar 19 24 Jul 14:05:46 14:10:46 56° 259° (W) 14:15:48 437.125 CW, 437.150 USB
AO-7 24 Jul 14:10:09 14:14:17 15° 47° (NE) 14:18:24 29.400 - 29.500 MHz
Oscar 16 24 Jul 14:34:02 14:38:26 29° 264° (W) 14:42:51 437.025 USB, Beacon 2401.1428
TMSAT-1 24 Jul 14:34:38 14:39:28 38° 69° (ENE) 14:44:20 436.925 FM
SO-50 24 Jul 14:38:30 14:42:46 44° 307° (NW) 14:47:08 436.795 FM
ITAMSAT 1 24 Jul 14:43:29 14:48:35 53° 260° (W) 14:53:42 435.822 SSB
KITSAT 1 24 Jul 14:48:41 14:55:04 25° 39° (NE) 15:01:24 435.175 FM
Gurwin Techsat 1B 24 Jul 14:55:10 15:00:28 80° 75° (ENE) 15:05:49 435.225 FM
RS-15 24 Jul 14:56:38 15:07:49 85° 301° (WNW) 15:18:49 29.354 - 29.394 USB, Beacon 29.352 USB
AO-27 24 Jul 15:01:48 15:06:33 35° 263° (W) 15:11:20 436.795 MHz FM
AO-Echo 24 Jul 15:01:55 15:06:43 36° 263° (W) 15:11:36 ?
Uribyol 2 24 Jul 15:04:54 15:09:30 32° 263° (W) 15:14:07 436.500 FM
JAS-1B 24 Jul 15:14:01 15:22:26 71° 258° (WSW) 15:32:08 435.800 - 435.900 CW/SSB
Uosat F 24 Jul 15:17:01 15:20:51 22° 65° (ENE) 15:24:41 435.120 FM
UOSAT-12 24 Jul 15:26:55 15:31:14 43° 116° (ESE) 15:35:40 437.025 FM, 437.400 FM
OPAL 24 Jul 15:51:46 15:54:43 15° 94° (E) 15:57:40 ?
AO-7 24 Jul 15:57:15 16:05:28 65° 67° (ENE) 16:13:44 29.400 - 29.500 MHz
Saudisat 1A 24 Jul 16:11:49 16:12:55 11° 37° (NE) 16:14:01 436.775 MHz
TMSAT-1 24 Jul 16:15:03 16:19:27 26° 265° (W) 16:23:52 436.925 FM
Gurwin Techsat 1B 24 Jul 16:39:11 16:41:02 12° 271° (W) 16:42:53 435.225 FM
KITSAT 1 24 Jul 16:43:25 16:51:33 89° 242° (WSW) 16:59:37 435.175 FM
Uosat F 24 Jul 16:54:33 16:59:20 43° 261° (W) 17:04:09 435.120 FM
UOSAT-12 24 Jul 17:07:49 17:11:34 24° 314° (NW) 17:15:24 437.025 FM, 437.400 FM
JAS-1B 24 Jul 17:10:41 17:14:44 14° 279° (W) 17:19:01 435.800 - 435.900 CW/SSB
RS-15 24 Jul 17:12:45 17:21:56 29° 328° (NNW) 17:31:06 29.354 - 29.394 USB, Beacon 29.352 USB
JAS-2 24 Jul 17:16:48 17:23:30 33° 65° (ENE) 17:29:57 435.800 - 435.900 CW/SSB, 435.910 FM
OPAL 24 Jul 17:28:59 17:33:57 60° 289° (WNW) 17:38:58 ?
Hamsat 24 Jul 17:42:06 17:46:01 40° 72° (ENE) 17:49:56 145.90 MHz
Saudisat 1A 24 Jul 17:48:54 17:53:19 70° 56° (ENE) 17:57:41 436.775 MHz
AO-7 24 Jul 17:51:58 17:58:44 27° 265° (W) 18:05:35 29.400 - 29.500 MHz
SO-67 24 Jul 18:21:20 18:23:10 14° 68° (ENE) 18:25:00 435.3500 MHz FM
